Year,Month,Day,Hour,Minute,Value (Times are PST for temperature in C)
2010,04,28,00,00,6.10
2010,04,28,00,01,6.00
2010,04,28,00,02,6.00
2010,04,28,00,03,5.90
2010,04,28,00,04,5.90
2010,04,28,00,05,5.90
2010,04,28,00,06,5.90
2010,04,28,00,07,5.90
2010,04,28,00,08,5.90
2010,04,28,00,09,5.90
2010,04,28,00,10,5.90
2010,04,28,00,11,5.90
2010,04,28,00,12,5.90
2010,04,28,00,13,6.00
2010,04,28,00,14,6.00
2010,04,28,00,15,6.00
2010,04,28,00,16,6.10
2010,04,28,00,17,6.10
2010,04,28,00,18,6.40
2010,04,28,00,19,6.70
2010,04,28,00,20,6.90
2010,04,28,00,21,7.10
2010,04,28,00,22,7.30
2010,04,28,00,23,7.40
2010,04,28,00,24,7.50
2010,04,28,00,25,7.60
2010,04,28,00,26,7.60
2010,04,28,00,27,7.70
2010,04,28,00,28,7.70
2010,04,28,00,29,7.70
2010,04,28,00,30,7.70
2010,04,28,00,31,7.70
2010,04,28,00,32,7.70
2010,04,28,00,33,7.70
2010,04,28,00,34,7.70
2010,04,28,00,35,7.70
2010,04,28,00,36,7.70
2010,04,28,00,37,7.70
2010,04,28,00,38,7.70
2010,04,28,00,39,7.70
2010,04,28,00,40,7.70
2010,04,28,00,41,7.70
2010,04,28,00,42,7.70
2010,04,28,00,43,7.70
2010,04,28,00,44,7.70
2010,04,28,00,45,7.70
2010,04,28,00,46,7.70
2010,04,28,00,47,7.70
2010,04,28,00,48,7.70
2010,04,28,00,49,7.70
2010,04,28,00,50,7.70
2010,04,28,00,51,7.70
2010,04,28,00,52,7.70
2010,04,28,00,53,7.80
2010,04,28,00,54,7.70
2010,04,28,00,55,7.70
2010,04,28,00,56,7.70
2010,04,28,00,57,7.70
2010,04,28,00,58,7.70
2010,04,28,00,59,7.70
2010,04,28,01,00,7.70
2010,04,28,01,01,7.70
2010,04,28,01,02,7.70
2010,04,28,01,03,7.80
2010,04,28,01,04,7.80
2010,04,28,01,05,7.80
2010,04,28,01,06,7.90
2010,04,28,01,07,7.90
2010,04,28,01,08,7.90
2010,04,28,01,09,7.90
2010,04,28,01,10,7.90
2010,04,28,01,11,7.90
2010,04,28,01,12,7.90
2010,04,28,01,13,7.90
2010,04,28,01,14,7.90
2010,04,28,01,15,8.00
2010,04,28,01,16,8.00
2010,04,28,01,17,8.00
2010,04,28,01,18,8.00
2010,04,28,01,19,8.00
2010,04,28,01,20,8.00
2010,04,28,01,21,8.00
2010,04,28,01,22,8.10
2010,04,28,01,23,8.10
2010,04,28,01,24,8.10
2010,04,28,01,25,8.10
2010,04,28,01,26,8.00
2010,04,28,01,27,8.00
2010,04,28,01,28,8.00
2010,04,28,01,29,8.00
2010,04,28,01,30,8.00
2010,04,28,01,31,8.00
2010,04,28,01,32,8.00
2010,04,28,01,33,8.00
2010,04,28,01,34,8.00
2010,04,28,01,35,8.00
2010,04,28,01,36,8.00
2010,04,28,01,37,8.00
2010,04,28,01,38,7.90
2010,04,28,01,39,7.90
2010,04,28,01,40,7.90
2010,04,28,01,41,7.90
2010,04,28,01,42,7.90
2010,04,28,01,43,7.90
2010,04,28,01,44,7.90
2010,04,28,01,45,7.90
2010,04,28,01,46,7.90
2010,04,28,01,47,7.90
2010,04,28,01,48,7.90
2010,04,28,01,49,7.90
2010,04,28,01,50,7.90
2010,04,28,01,51,7.90
2010,04,28,01,52,7.90
2010,04,28,01,53,7.90
2010,04,28,01,54,7.90
2010,04,28,01,55,7.90
2010,04,28,01,56,7.90
2010,04,28,01,57,7.90
2010,04,28,01,58,7.90
2010,04,28,01,59,7.90
2010,04,28,02,00,7.90
2010,04,28,02,01,7.90
2010,04,28,02,02,7.90
2010,04,28,02,03,7.90
2010,04,28,02,04,7.90
2010,04,28,02,05,7.90
2010,04,28,02,06,7.90
2010,04,28,02,07,7.90
2010,04,28,02,08,7.90
2010,04,28,02,09,7.90
2010,04,28,02,10,7.90
2010,04,28,02,11,7.90
2010,04,28,02,12,7.90
2010,04,28,02,13,7.90
2010,04,28,02,14,7.90
2010,04,28,02,15,7.90
2010,04,28,02,16,7.90
2010,04,28,02,17,7.90
2010,04,28,02,18,7.90
2010,04,28,02,19,7.90
2010,04,28,02,20,7.90
2010,04,28,02,21,7.90
2010,04,28,02,22,7.90
2010,04,28,02,23,7.90
2010,04,28,02,24,7.90
2010,04,28,02,25,7.90
2010,04,28,02,26,7.90
2010,04,28,02,27,7.80
2010,04,28,02,28,7.80
2010,04,28,02,29,7.80
2010,04,28,02,30,7.80
2010,04,28,02,31,7.80
2010,04,28,02,32,7.80
2010,04,28,02,33,7.80
2010,04,28,02,34,7.80
2010,04,28,02,35,7.80
2010,04,28,02,36,7.80
2010,04,28,02,37,7.80
2010,04,28,02,38,7.80
2010,04,28,02,39,7.80
2010,04,28,02,40,7.80
2010,04,28,02,41,7.80
2010,04,28,02,42,7.80
2010,04,28,02,43,7.80
2010,04,28,02,44,7.80
2010,04,28,02,45,7.80
2010,04,28,02,46,7.80
2010,04,28,02,47,7.70
2010,04,28,02,48,7.70
2010,04,28,02,49,7.70
2010,04,28,02,50,7.80
2010,04,28,02,51,7.80
2010,04,28,02,52,7.80
2010,04,28,02,53,7.80
2010,04,28,02,54,7.80
2010,04,28,02,55,7.80
2010,04,28,02,56,7.80
2010,04,28,02,57,7.80
2010,04,28,02,58,7.70
2010,04,28,02,59,7.70
2010,04,28,03,00,7.70
2010,04,28,03,01,7.70
2010,04,28,03,02,7.70
2010,04,28,03,03,7.70
2010,04,28,03,04,7.70
2010,04,28,03,05,7.70
2010,04,28,03,06,7.80
2010,04,28,03,07,7.80
2010,04,28,03,08,7.80
2010,04,28,03,09,7.80
2010,04,28,03,10,7.80
2010,04,28,03,11,7.80
2010,04,28,03,12,7.70
2010,04,28,03,13,7.70
2010,04,28,03,14,7.70
2010,04,28,03,15,7.70
2010,04,28,03,16,7.60
2010,04,28,03,17,7.60
2010,04,28,03,18,7.60
2010,04,28,03,19,7.50
2010,04,28,03,20,7.50
2010,04,28,03,21,7.50
2010,04,28,03,22,7.50
2010,04,28,03,23,7.50
2010,04,28,03,24,7.50
2010,04,28,03,25,7.50
2010,04,28,03,26,7.60
2010,04,28,03,27,7.70
2010,04,28,03,28,7.70
2010,04,28,03,29,7.70
2010,04,28,03,30,7.80
2010,04,28,03,31,7.80
2010,04,28,03,32,7.90
2010,04,28,03,33,7.90
2010,04,28,03,34,8.00
2010,04,28,03,35,8.00
2010,04,28,03,36,8.00
2010,04,28,03,37,8.00
2010,04,28,03,38,8.00
2010,04,28,03,39,7.90
2010,04,28,03,40,7.90
2010,04,28,03,41,7.90
2010,04,28,03,42,7.90
2010,04,28,03,43,7.90
2010,04,28,03,44,7.90
2010,04,28,03,45,7.90
2010,04,28,03,46,7.90
2010,04,28,03,47,8.00
2010,04,28,03,48,8.00
2010,04,28,03,49,8.00
2010,04,28,03,50,8.00
2010,04,28,03,51,8.00
2010,04,28,03,52,8.00
2010,04,28,03,53,8.00
2010,04,28,03,54,7.90
2010,04,28,03,55,7.90
2010,04,28,03,56,7.90
2010,04,28,03,57,7.90
2010,04,28,03,58,7.90
2010,04,28,03,59,7.90
2010,04,28,04,00,7.90
2010,04,28,04,01,7.90
2010,04,28,04,02,7.90
2010,04,28,04,03,7.90
2010,04,28,04,04,7.90
2010,04,28,04,07,7.90
2010,04,28,04,09,7.90
2010,04,28,04,11,7.90
2010,04,28,04,12,8.00
2010,04,28,04,13,7.90
2010,04,28,04,14,8.00
2010,04,28,04,15,8.00
2010,04,28,04,16,8.00
2010,04,28,04,17,7.90
2010,04,28,04,18,7.90
2010,04,28,04,19,7.90
2010,04,28,04,20,7.90
2010,04,28,04,21,7.90
2010,04,28,04,22,7.90
2010,04,28,04,23,7.90
2010,04,28,04,24,7.90
2010,04,28,04,25,7.90
2010,04,28,04,26,7.90
2010,04,28,04,27,7.90
2010,04,28,04,28,7.90
2010,04,28,04,29,7.90
2010,04,28,04,30,7.90
2010,04,28,04,31,7.90
2010,04,28,04,32,7.90
2010,04,28,04,33,7.90
2010,04,28,04,34,7.90
2010,04,28,04,35,7.90
2010,04,28,04,36,7.90
2010,04,28,04,37,7.90
2010,04,28,04,38,7.90
2010,04,28,04,39,7.90
2010,04,28,04,40,7.90
2010,04,28,04,41,7.90
2010,04,28,04,42,7.90
2010,04,28,04,43,7.90
2010,04,28,04,44,7.90
2010,04,28,04,45,7.90
2010,04,28,04,46,7.90
2010,04,28,04,47,7.90
2010,04,28,04,48,7.90
2010,04,28,04,49,7.90
2010,04,28,04,50,8.00
2010,04,28,04,51,8.00
2010,04,28,04,52,8.00
2010,04,28,04,53,8.10
2010,04,28,04,54,8.10
2010,04,28,04,55,8.10
2010,04,28,04,56,8.00
2010,04,28,04,57,8.00
2010,04,28,04,58,8.00
2010,04,28,04,59,8.00
2010,04,28,05,00,8.00
2010,04,28,05,01,8.00
2010,04,28,05,02,8.00
2010,04,28,05,03,7.90
2010,04,28,05,04,7.90
2010,04,28,05,05,7.90
2010,04,28,05,06,7.90
2010,04,28,05,07,7.90
2010,04,28,05,08,7.90
2010,04,28,05,09,7.90
2010,04,28,05,10,7.90
2010,04,28,05,11,7.90
2010,04,28,05,12,7.90
2010,04,28,05,13,7.90
2010,04,28,05,14,7.90
2010,04,28,05,15,7.90
2010,04,28,05,16,7.90
2010,04,28,05,17,7.90
2010,04,28,05,18,7.90
2010,04,28,05,19,7.90
2010,04,28,05,20,7.90
2010,04,28,05,21,7.90
2010,04,28,05,22,7.90
2010,04,28,05,23,7.90
2010,04,28,05,24,7.90
2010,04,28,05,25,7.90
2010,04,28,05,26,7.90
2010,04,28,05,27,7.90
2010,04,28,05,28,7.90
2010,04,28,05,29,7.90
2010,04,28,05,30,7.90
2010,04,28,05,31,7.90
2010,04,28,05,32,7.90
2010,04,28,05,33,7.90
2010,04,28,05,34,7.90
2010,04,28,05,35,8.00
2010,04,28,05,36,8.00
2010,04,28,05,37,8.00
2010,04,28,05,38,8.10
2010,04,28,05,39,8.10
2010,04,28,05,40,8.10
2010,04,28,05,41,8.20
2010,04,28,05,42,8.20
2010,04,28,05,43,8.20
2010,04,28,05,44,8.20
2010,04,28,05,45,8.20
2010,04,28,05,46,8.20
2010,04,28,05,47,8.20
2010,04,28,05,48,8.20
2010,04,28,05,49,8.30
2010,04,28,05,50,8.30
2010,04,28,05,51,8.40
2010,04,28,05,52,8.40
2010,04,28,05,53,8.40
2010,04,28,05,54,8.50
2010,04,28,05,55,8.50
2010,04,28,05,56,8.60
2010,04,28,05,57,8.60
2010,04,28,05,58,8.60
2010,04,28,05,59,8.60
2010,04,28,06,00,8.60
2010,04,28,06,01,8.60
2010,04,28,06,02,8.60
2010,04,28,06,03,8.60
2010,04,28,06,04,8.60
2010,04,28,06,05,8.60
2010,04,28,06,06,8.60
2010,04,28,06,07,8.60
2010,04,28,06,08,8.60
2010,04,28,06,09,8.60
2010,04,28,06,10,8.60
2010,04,28,06,11,8.50
2010,04,28,06,12,8.50
2010,04,28,06,13,8.50
2010,04,28,06,14,8.50
2010,04,28,06,15,8.40
2010,04,28,06,16,8.40
2010,04,28,06,17,8.40
2010,04,28,06,18,8.40
2010,04,28,06,19,8.40
2010,04,28,06,20,8.40
2010,04,28,06,21,8.40
2010,04,28,06,22,8.40
2010,04,28,06,23,8.40
2010,04,28,06,24,8.40
2010,04,28,06,25,8.40
2010,04,28,06,26,8.40
2010,04,28,06,27,8.30
2010,04,28,06,28,8.30
2010,04,28,06,29,8.30
2010,04,28,06,30,8.30
2010,04,28,06,31,8.30
2010,04,28,06,32,8.20
2010,04,28,06,33,8.20
2010,04,28,06,34,8.20
2010,04,28,06,35,8.20
2010,04,28,06,36,8.10
2010,04,28,06,37,8.10
2010,04,28,06,38,8.10
2010,04,28,06,39,8.10
2010,04,28,06,40,8.10
2010,04,28,06,41,8.10
2010,04,28,06,42,8.00
2010,04,28,06,43,8.10
2010,04,28,06,44,8.10
2010,04,28,06,45,8.10
2010,04,28,06,46,8.10
2010,04,28,06,47,8.20
2010,04,28,06,48,8.20
2010,04,28,06,49,8.20
2010,04,28,06,50,8.20
2010,04,28,06,51,8.20
2010,04,28,06,52,8.20
2010,04,28,06,53,8.20
2010,04,28,06,54,8.20
2010,04,28,06,55,8.20
2010,04,28,06,56,8.20
2010,04,28,06,57,8.20
2010,04,28,06,58,8.20
2010,04,28,06,59,8.20
2010,04,28,07,00,8.20
2010,04,28,07,01,8.20
2010,04,28,07,02,8.20
2010,04,28,07,03,8.20
2010,04,28,07,04,8.20
2010,04,28,07,05,8.20
2010,04,28,07,06,8.20
2010,04,28,07,07,8.20
2010,04,28,07,08,8.20
2010,04,28,07,09,8.20
2010,04,28,07,10,8.20
2010,04,28,07,11,8.20
2010,04,28,07,12,8.20
2010,04,28,07,13,8.30
2010,04,28,07,14,8.30
2010,04,28,07,15,8.30
2010,04,28,07,16,8.40
2010,04,28,07,17,8.50
2010,04,28,07,18,8.60
2010,04,28,07,19,8.70
2010,04,28,07,20,8.70
2010,04,28,07,21,8.80
2010,04,28,07,22,8.80
2010,04,28,07,23,8.80
2010,04,28,07,24,8.90
2010,04,28,07,25,8.90
2010,04,28,07,26,8.90
2010,04,28,07,27,9.00
2010,04,28,07,28,9.00
2010,04,28,07,29,9.10
2010,04,28,07,30,9.10
2010,04,28,07,31,9.10
2010,04,28,07,32,9.10
2010,04,28,07,33,9.10
2010,04,28,07,34,9.10
2010,04,28,07,35,9.00
2010,04,28,07,36,9.00
2010,04,28,07,37,9.00
2010,04,28,07,38,9.00
2010,04,28,07,39,9.10
2010,04,28,07,40,9.10
2010,04,28,07,41,9.10
2010,04,28,07,42,9.10
2010,04,28,07,43,9.10
2010,04,28,07,44,9.10
2010,04,28,07,45,9.10
2010,04,28,07,46,9.10
2010,04,28,07,47,9.10
2010,04,28,07,48,9.10
2010,04,28,07,49,9.10
2010,04,28,07,50,9.10
2010,04,28,07,51,9.10
2010,04,28,07,52,9.10
2010,04,28,07,53,9.10
2010,04,28,07,54,9.10
2010,04,28,07,55,9.10
2010,04,28,07,56,9.10
2010,04,28,07,57,9.10
2010,04,28,07,58,9.10
2010,04,28,07,59,9.20
2010,04,28,08,00,9.20
2010,04,28,08,01,9.20
2010,04,28,08,02,9.20
2010,04,28,08,03,9.20
2010,04,28,08,04,9.20
2010,04,28,08,05,9.20
2010,04,28,08,06,9.20
2010,04,28,08,07,9.20
2010,04,28,08,08,9.10
2010,04,28,08,09,9.10
2010,04,28,08,10,9.00
2010,04,28,08,11,9.00
2010,04,28,08,12,9.00
2010,04,28,08,13,8.90
2010,04,28,08,14,8.90
2010,04,28,08,15,8.90
2010,04,28,08,16,8.90
2010,04,28,08,17,8.90
2010,04,28,08,18,8.90
2010,04,28,08,19,8.90
2010,04,28,08,20,8.90
2010,04,28,08,21,8.80
2010,04,28,08,22,8.80
2010,04,28,08,23,8.80
2010,04,28,08,24,8.80
2010,04,28,08,25,8.80
2010,04,28,08,26,8.80
2010,04,28,08,27,8.80
2010,04,28,08,28,8.80
2010,04,28,08,29,8.90
2010,04,28,08,30,8.90
2010,04,28,08,31,8.90
2010,04,28,08,32,8.90
2010,04,28,08,33,8.90
2010,04,28,08,34,8.90
2010,04,28,08,35,9.00
2010,04,28,08,36,9.00
2010,04,28,08,37,9.00
2010,04,28,08,38,9.10
2010,04,28,08,39,9.10
2010,04,28,08,40,9.10
2010,04,28,08,41,9.20
2010,04,28,08,42,9.20
2010,04,28,08,43,9.20
2010,04,28,08,44,9.30
2010,04,28,08,45,9.30
2010,04,28,08,46,9.30
2010,04,28,08,47,9.40
2010,04,28,08,48,9.40
2010,04,28,08,49,9.40
2010,04,28,08,50,9.40
2010,04,28,08,51,9.50
2010,04,28,08,52,9.50
2010,04,28,08,53,9.50
2010,04,28,08,54,9.50
2010,04,28,08,55,9.60
2010,04,28,08,56,9.60
2010,04,28,08,57,9.60
2010,04,28,08,58,9.60
2010,04,28,08,59,9.60
2010,04,28,09,00,9.60
2010,04,28,09,01,9.70
2010,04,28,09,02,9.80
2010,04,28,09,03,9.80
2010,04,28,09,04,9.90
2010,04,28,09,05,9.90
2010,04,28,09,06,9.90
2010,04,28,09,07,9.90
2010,04,28,09,08,9.90
2010,04,28,09,09,9.90
2010,04,28,09,10,9.90
2010,04,28,09,11,9.90
2010,04,28,09,12,9.90
2010,04,28,09,13,9.90
2010,04,28,09,14,9.90
2010,04,28,09,15,9.90
2010,04,28,09,16,9.90
2010,04,28,09,17,9.90
2010,04,28,09,18,9.90
2010,04,28,09,19,9.90
2010,04,28,09,20,9.90
2010,04,28,09,21,9.90
2010,04,28,09,22,9.90
2010,04,28,09,23,9.90
2010,04,28,09,24,9.90
2010,04,28,09,25,10.00
2010,04,28,09,26,10.00
2010,04,28,09,27,10.00
2010,04,28,09,28,10.10
2010,04,28,09,29,10.10
2010,04,28,09,30,10.10
2010,04,28,09,31,10.10
2010,04,28,09,32,10.10
2010,04,28,09,33,10.10
2010,04,28,09,34,10.20
2010,04,28,09,35,10.20
2010,04,28,09,36,10.30
2010,04,28,09,37,10.30
2010,04,28,09,38,10.30
2010,04,28,09,39,10.30
2010,04,28,09,40,10.30
2010,04,28,09,41,10.20
2010,04,28,09,42,10.30
2010,04,28,09,43,10.30
2010,04,28,09,44,10.30
2010,04,28,09,45,10.30
2010,04,28,09,46,10.40
2010,04,28,09,47,10.40
2010,04,28,09,48,10.40
2010,04,28,09,49,10.50
2010,04,28,09,50,10.50
2010,04,28,09,51,10.60
2010,04,28,09,52,10.70
2010,04,28,09,53,10.70
2010,04,28,09,54,10.70
2010,04,28,09,55,10.70
2010,04,28,09,56,10.80
2010,04,28,09,57,10.80
2010,04,28,09,58,10.80
2010,04,28,09,59,10.80
2010,04,28,10,00,10.80
2010,04,28,10,01,10.80
2010,04,28,10,02,10.80
2010,04,28,10,03,10.90
2010,04,28,10,04,10.90
2010,04,28,10,05,11.00
2010,04,28,10,06,11.00
2010,04,28,10,07,11.00
2010,04,28,10,08,11.00
2010,04,28,10,09,11.00
2010,04,28,10,10,11.10
2010,04,28,10,11,11.20
2010,04,28,10,12,11.20
2010,04,28,10,13,11.30
2010,04,28,10,14,11.30
2010,04,28,10,15,11.30
2010,04,28,10,16,11.30
2010,04,28,10,17,11.20
2010,04,28,10,18,11.20
2010,04,28,10,19,11.20
2010,04,28,10,20,11.20
2010,04,28,10,21,11.20
2010,04,28,10,22,11.20
2010,04,28,10,23,11.20
2010,04,28,10,24,11.20
2010,04,28,10,25,11.30
2010,04,28,10,26,11.30
2010,04,28,10,27,11.30
2010,04,28,10,28,11.30
2010,04,28,10,29,11.30
2010,04,28,10,30,11.30
2010,04,28,10,31,11.40
2010,04,28,10,32,11.40
2010,04,28,10,33,11.30
2010,04,28,10,34,11.40
2010,04,28,10,35,11.40
2010,04,28,10,36,11.50
2010,04,28,10,37,11.50
2010,04,28,10,38,11.60
2010,04,28,10,39,11.60
2010,04,28,10,40,11.60
2010,04,28,10,41,11.70
2010,04,28,10,42,11.70
2010,04,28,10,43,11.60
2010,04,28,10,44,11.60
2010,04,28,10,45,11.50
2010,04,28,10,46,11.50
2010,04,28,10,47,11.40
2010,04,28,10,48,11.40
2010,04,28,10,49,11.40
2010,04,28,10,50,11.40
2010,04,28,10,51,11.40
2010,04,28,10,52,11.30
2010,04,28,10,53,11.30
2010,04,28,10,54,11.30
2010,04,28,10,55,11.30
2010,04,28,10,56,11.30
2010,04,28,10,57,11.40
2010,04,28,10,58,11.40
2010,04,28,10,59,11.40
2010,04,28,11,00,11.40
2010,04,28,11,01,11.50
2010,04,28,11,02,11.50
2010,04,28,11,03,11.60
2010,04,28,11,04,11.60
2010,04,28,11,05,11.60
2010,04,28,11,06,11.60
2010,04,28,11,07,11.50
2010,04,28,11,08,11.50
2010,04,28,11,09,11.40
2010,04,28,11,10,11.40
2010,04,28,11,11,11.40
2010,04,28,11,12,11.40
2010,04,28,11,13,11.40
2010,04,28,11,14,11.40
2010,04,28,11,15,11.40
2010,04,28,11,16,11.40
2010,04,28,11,17,11.40
2010,04,28,11,18,11.50
2010,04,28,11,19,11.50
2010,04,28,11,20,11.60
2010,04,28,11,21,11.60
2010,04,28,11,22,11.70
2010,04,28,11,23,11.80
2010,04,28,11,24,11.90
2010,04,28,11,25,12.00
2010,04,28,11,26,12.00
2010,04,28,11,27,12.00
2010,04,28,11,28,12.00
2010,04,28,11,29,12.00
2010,04,28,11,30,12.00
2010,04,28,11,31,11.90
2010,04,28,11,32,11.80
2010,04,28,11,33,11.80
2010,04,28,11,34,11.70
2010,04,28,11,35,11.70
2010,04,28,11,36,11.70
2010,04,28,11,37,11.60
2010,04,28,11,38,11.60
2010,04,28,11,39,11.60
2010,04,28,11,40,11.60
2010,04,28,11,41,11.50
2010,04,28,11,42,11.50
2010,04,28,11,43,11.40
2010,04,28,11,44,11.40
2010,04,28,11,45,11.40
2010,04,28,11,46,11.50
2010,04,28,11,47,11.50
2010,04,28,11,48,11.50
2010,04,28,11,49,11.50
2010,04,28,11,50,11.60
2010,04,28,11,51,11.60
2010,04,28,11,52,11.60
2010,04,28,11,53,11.60
2010,04,28,11,54,11.70
2010,04,28,11,55,11.70
2010,04,28,11,56,11.80
2010,04,28,11,57,11.80
2010,04,28,11,58,11.80
2010,04,28,11,59,11.90
2010,04,28,12,00,11.90
2010,04,28,12,01,11.90
2010,04,28,12,02,12.00
2010,04,28,12,03,12.00
2010,04,28,12,04,11.90
2010,04,28,12,05,11.90
2010,04,28,12,06,11.90
2010,04,28,12,07,11.90
2010,04,28,12,08,11.90
2010,04,28,12,09,11.90
2010,04,28,12,10,11.90
2010,04,28,12,11,11.90
2010,04,28,12,12,11.90
2010,04,28,12,13,11.90
2010,04,28,12,14,11.80
2010,04,28,12,15,11.80
2010,04,28,12,16,11.80
2010,04,28,12,17,11.80
2010,04,28,12,18,11.80
2010,04,28,12,19,11.80
2010,04,28,12,20,11.80
2010,04,28,12,21,11.70
2010,04,28,12,22,11.70
2010,04,28,12,23,11.70
2010,04,28,12,24,11.70
2010,04,28,12,25,11.60
2010,04,28,12,26,11.70
2010,04,28,12,27,11.70
2010,04,28,12,28,11.80
2010,04,28,12,29,11.80
2010,04,28,12,30,11.90
2010,04,28,12,31,12.00
2010,04,28,12,32,12.00
2010,04,28,12,33,12.10
2010,04,28,12,34,12.10
2010,04,28,12,35,12.20
2010,04,28,12,36,12.20
2010,04,28,12,37,12.10
2010,04,28,12,38,11.90
2010,04,28,12,39,11.80
2010,04,28,12,40,11.80
2010,04,28,12,41,11.80
2010,04,28,12,42,11.80
2010,04,28,12,43,11.80
2010,04,28,12,44,11.70
2010,04,28,12,45,11.70
2010,04,28,12,46,11.70
2010,04,28,12,47,11.70
2010,04,28,12,48,11.60
2010,04,28,12,49,11.60
2010,04,28,12,50,11.60
2010,04,28,12,51,11.60
2010,04,28,12,52,11.60
2010,04,28,12,53,11.50
2010,04,28,12,54,11.40
2010,04,28,12,55,11.30
2010,04,28,12,56,11.20
2010,04,28,12,57,11.20
2010,04,28,12,58,11.10
2010,04,28,12,59,11.10
2010,04,28,13,00,11.10
2010,04,28,13,01,11.10
2010,04,28,13,02,11.10
2010,04,28,13,03,11.10
2010,04,28,13,04,11.10
2010,04,28,13,05,11.00
2010,04,28,13,06,11.00
2010,04,28,13,07,11.00
2010,04,28,13,08,10.90
2010,04,28,13,09,10.90
2010,04,28,13,10,10.80
2010,04,28,13,11,10.80
2010,04,28,13,12,10.80
2010,04,28,13,13,10.70
2010,04,28,13,14,10.70
2010,04,28,13,15,10.70
2010,04,28,13,16,10.70
2010,04,28,13,17,10.70
2010,04,28,13,18,10.60
2010,04,28,13,19,10.50
2010,04,28,13,20,10.50
2010,04,28,13,21,10.40
2010,04,28,13,22,10.40
2010,04,28,13,23,10.30
2010,04,28,13,24,10.10
2010,04,28,13,25,9.90
2010,04,28,13,26,9.70
2010,04,28,13,27,9.50
2010,04,28,13,28,9.30
2010,04,28,13,29,9.10
2010,04,28,13,30,9.00
2010,04,28,13,31,8.90
2010,04,28,13,32,8.80
2010,04,28,13,33,8.80
2010,04,28,13,34,8.80
2010,04,28,13,35,8.80
2010,04,28,13,36,8.80
2010,04,28,13,37,8.80
2010,04,28,13,38,8.80
2010,04,28,13,39,8.90
2010,04,28,13,40,8.90
2010,04,28,13,41,9.00
2010,04,28,13,42,9.00
2010,04,28,13,43,9.10
2010,04,28,13,44,9.10
2010,04,28,13,45,9.20
2010,04,28,13,46,9.30
2010,04,28,13,47,9.30
2010,04,28,13,48,9.40
2010,04,28,13,49,9.50
2010,04,28,13,50,9.60
2010,04,28,13,51,9.70
2010,04,28,13,52,9.80
2010,04,28,13,53,9.90
2010,04,28,13,54,9.90
2010,04,28,13,55,9.80
2010,04,28,13,56,9.90
2010,04,28,13,57,9.90
2010,04,28,13,58,9.90
2010,04,28,13,59,9.90
2010,04,28,14,00,9.90
2010,04,28,14,01,9.90
2010,04,28,14,02,9.90
2010,04,28,14,03,10.00
2010,04,28,14,04,10.00
2010,04,28,14,05,10.00
2010,04,28,14,06,10.10
2010,04,28,14,07,10.10
2010,04,28,14,08,10.20
2010,04,28,14,09,10.20
2010,04,28,14,10,10.30
2010,04,28,14,11,10.30
2010,04,28,14,12,10.40
2010,04,28,14,13,10.40
2010,04,28,14,14,10.50
2010,04,28,14,15,10.60
2010,04,28,14,16,10.60
2010,04,28,14,17,10.70
2010,04,28,14,18,10.80
2010,04,28,14,19,10.80
2010,04,28,14,20,10.80
2010,04,28,14,21,10.80
2010,04,28,14,22,10.80
2010,04,28,14,23,10.80
2010,04,28,14,24,10.90
2010,04,28,14,25,10.90
2010,04,28,14,26,10.90
2010,04,28,14,27,11.00
2010,04,28,14,28,10.90
2010,04,28,14,29,10.90
2010,04,28,14,30,10.90
2010,04,28,14,31,10.80
2010,04,28,14,32,10.80
2010,04,28,14,33,10.80
2010,04,28,14,34,10.80
2010,04,28,14,35,10.70
2010,04,28,14,36,10.80
2010,04,28,14,37,10.80
2010,04,28,14,38,10.90
2010,04,28,14,39,10.90
2010,04,28,14,40,11.00
2010,04,28,14,41,11.10
2010,04,28,14,42,11.20
2010,04,28,14,43,11.20
2010,04,28,14,44,11.30
2010,04,28,14,45,11.30
2010,04,28,14,46,11.40
2010,04,28,14,47,11.40
2010,04,28,14,48,11.60
2010,04,28,14,49,11.70
2010,04,28,14,50,11.80
2010,04,28,14,51,11.80
2010,04,28,14,52,11.90
2010,04,28,14,53,12.00
2010,04,28,14,54,12.10
2010,04,28,14,55,12.10
2010,04,28,14,56,12.10
2010,04,28,14,57,12.20
2010,04,28,14,58,12.20
2010,04,28,14,59,12.30
2010,04,28,15,00,12.30
2010,04,28,15,01,12.40
2010,04,28,15,02,12.40
2010,04,28,15,03,12.40
2010,04,28,15,04,12.40
2010,04,28,15,05,12.30
2010,04,28,15,06,12.30
2010,04,28,15,07,12.30
2010,04,28,15,08,12.30
2010,04,28,15,09,12.30
2010,04,28,15,10,12.30
2010,04,28,15,11,12.30
2010,04,28,15,12,12.40
2010,04,28,15,13,12.40
2010,04,28,15,14,12.40
2010,04,28,15,15,12.40
2010,04,28,15,16,12.50
2010,04,28,15,17,12.50
2010,04,28,15,18,12.50
2010,04,28,15,19,12.50
2010,04,28,15,20,12.60
2010,04,28,15,21,12.50
2010,04,28,15,22,12.50
2010,04,28,15,23,12.60
2010,04,28,15,24,12.60
2010,04,28,15,25,12.60
2010,04,28,15,26,12.70
2010,04,28,15,27,12.80
2010,04,28,15,28,12.90
2010,04,28,15,29,12.90
2010,04,28,15,30,12.90
2010,04,28,15,31,12.90
2010,04,28,15,32,12.90
2010,04,28,15,33,12.90
2010,04,28,15,34,12.90
2010,04,28,15,35,12.90
2010,04,28,15,36,13.00
2010,04,28,15,37,13.00
2010,04,28,15,38,13.00
2010,04,28,15,39,13.10
2010,04,28,15,40,13.20
2010,04,28,15,41,13.20
2010,04,28,15,42,13.20
2010,04,28,15,43,13.20
2010,04,28,15,44,13.20
2010,04,28,15,45,13.20
2010,04,28,15,46,13.20
2010,04,28,15,47,13.00
2010,04,28,15,48,12.80
2010,04,28,15,49,12.40
2010,04,28,15,50,12.10
2010,04,28,15,51,11.80
2010,04,28,15,52,11.70
2010,04,28,15,53,11.50
2010,04,28,15,54,11.40
2010,04,28,15,55,11.30
2010,04,28,15,56,11.30
2010,04,28,15,57,11.30
2010,04,28,15,58,11.20
2010,04,28,15,59,11.20
2010,04,28,16,00,11.20
2010,04,28,16,01,11.20
2010,04,28,16,02,11.30
2010,04,28,16,03,11.30
2010,04,28,16,04,11.40
2010,04,28,16,05,11.40
2010,04,28,16,06,11.50
2010,04,28,16,07,11.60
2010,04,28,16,08,11.60
2010,04,28,16,09,11.60
2010,04,28,16,10,11.60
2010,04,28,16,11,11.60
2010,04,28,16,12,11.60
2010,04,28,16,13,11.70
2010,04,28,16,14,11.70
2010,04,28,16,15,11.70
2010,04,28,16,16,11.70
2010,04,28,16,17,11.70
2010,04,28,16,18,11.70
2010,04,28,16,19,11.80
2010,04,28,16,20,11.80
2010,04,28,16,21,11.80
2010,04,28,16,22,11.80
2010,04,28,16,23,11.80
2010,04,28,16,24,11.80
2010,04,28,16,25,11.80
2010,04,28,16,26,11.80
2010,04,28,16,27,11.80
2010,04,28,16,28,11.80
2010,04,28,16,29,11.80
2010,04,28,16,30,11.90
2010,04,28,16,31,11.90
2010,04,28,16,32,11.90
2010,04,28,16,33,11.90
2010,04,28,16,34,11.90
2010,04,28,16,35,12.00
2010,04,28,16,36,12.00
2010,04,28,16,37,12.10
2010,04,28,16,38,12.20
2010,04,28,16,39,12.20
2010,04,28,16,40,12.30
2010,04,28,16,41,12.40
2010,04,28,16,42,12.50
2010,04,28,16,43,12.50
2010,04,28,16,44,12.60
2010,04,28,16,45,12.60
2010,04,28,16,46,12.60
2010,04,28,16,47,12.70
2010,04,28,16,48,12.70
2010,04,28,16,49,12.80
2010,04,28,16,50,12.80
2010,04,28,16,51,12.90
2010,04,28,16,52,12.90
2010,04,28,16,53,12.90
2010,04,28,16,54,12.90
2010,04,28,16,55,12.90
2010,04,28,16,56,12.90
2010,04,28,16,57,12.90
2010,04,28,16,58,13.00
2010,04,28,16,59,13.10
2010,04,28,17,00,13.10
2010,04,28,17,01,13.20
2010,04,28,17,02,13.30
2010,04,28,17,03,13.40
2010,04,28,17,04,13.40
2010,04,28,17,05,13.40
2010,04,28,17,06,13.50
2010,04,28,17,07,13.60
2010,04,28,17,08,13.60
2010,04,28,17,09,13.60
2010,04,28,17,10,13.70
2010,04,28,17,11,13.70
2010,04,28,17,12,13.70
2010,04,28,17,13,13.70
2010,04,28,17,14,13.70
2010,04,28,17,15,13.70
2010,04,28,17,16,13.70
2010,04,28,17,17,13.70
2010,04,28,17,18,13.70
2010,04,28,17,19,13.70
2010,04,28,17,20,13.70
2010,04,28,17,21,13.70
2010,04,28,17,22,13.60
2010,04,28,17,23,13.50
2010,04,28,17,24,13.40
2010,04,28,17,25,13.30
2010,04,28,17,26,13.20
2010,04,28,17,27,13.20
2010,04,28,17,28,13.10
2010,04,28,17,29,13.10
2010,04,28,17,30,13.00
2010,04,28,17,31,13.00
2010,04,28,17,32,13.00
2010,04,28,17,33,13.00
2010,04,28,17,34,13.00
2010,04,28,17,35,12.90
2010,04,28,17,36,12.80
2010,04,28,17,37,12.80
2010,04,28,17,38,12.80
2010,04,28,17,39,12.70
2010,04,28,17,40,12.70
2010,04,28,17,41,12.70
2010,04,28,17,42,12.60
2010,04,28,17,43,12.60
2010,04,28,17,44,12.60
2010,04,28,17,45,12.60
2010,04,28,17,46,12.50
2010,04,28,17,47,12.40
2010,04,28,17,48,12.30
2010,04,28,17,49,12.30